Location: Bailleul
(50.3375°N, 2.8513°E)
Time: 04:43:10
(UTC+00:00)

Cosmos 1980 - Pass Details

Date: 27 October 2021
Orbit: 839 x 847 km, 71.0° (Epoch: 01 December)

Event Time Altitude Azimuth Distance (km) Brightness Sun altitude
Exits shadow 04:22:27 - 334° (NNW) 3,071 6.4 -21.0°
Reaches altitude 10° 04:24:06 10° 339° (NNW) 2,472 6.0 -20.7°
Maximum altitude 04:29:33 46° 52° (NE) 1,119 4.7 -19.9°
Drops below altitude 10° 04:34:59 10° 126° (SE) 2,464 6.8 -19.0°
Sets 04:37:32 0° 132° (SE) 3,397 7.6 -18.6°
